EJU65AP LIML-LEBL

Flight info

Callsign EJU65AP
Flight time 1h 18m
Altitude 29000
Route GEN DCT GEKBA DCT VAMTU DCT KOLON DCT GANGU DCT PADKO DCT DIVKO DCT NILDU DCT BISBA
Aircraft A320/M-SDE2E3FGHIJ1RWXYZ/LB1

Departure

Time 2026-05-06 12:29
Airport Milano Linate Airport (LIML)

Arrival

Time 2026-05-06 13:47
Airport Josep Tarradellas Barcelona-El Prat Airport (LEBL)
Time Latitude Longitude Altitude Speed Heading
2026-05-06 12:05 45.45976 9.28030 360 ft 0 kts 360°
2026-05-06 12:21 45.45971 9.28030 360 ft 3 kts 360°
2026-05-06 12:21 45.45944 9.28030 364 ft 4 kts 360°
2026-05-06 12:22 45.45922 9.28030 364 ft 4 kts 19°
2026-05-06 12:22 45.45907 9.28009 362 ft 4 kts 84°
2026-05-06 12:22 45.45906 9.27973 362 ft 4 kts 90°
2026-05-06 12:22 45.45907 9.27935 365 ft 4 kts 90°
2026-05-06 12:23 45.45907 9.27907 360 ft 0 kts 90°
2026-05-06 12:24 45.45907 9.27930 365 ft 0 kts 91°
2026-05-06 12:25 45.45907 9.27942 365 ft 2 kts 91°
2026-05-06 12:25 45.45896 9.27967 364 ft 5 kts 131°
2026-05-06 12:25 45.45856 9.27983 362 ft 7 kts 178°
2026-05-06 12:25 45.45808 9.27983 360 ft 7 kts 180°
2026-05-06 12:26 45.45755 9.27982 362 ft 8 kts 181°
2026-05-06 12:26 45.45687 9.27981 360 ft 11 kts 180°
2026-05-06 12:26 45.45600 9.27980 360 ft 14 kts 181°
2026-05-06 12:26 45.45503 9.27978 360 ft 11 kts 181°
2026-05-06 12:27 45.45458 9.27919 364 ft 9 kts 264°
2026-05-06 12:27 45.45458 9.27837 360 ft 8 kts 268°
2026-05-06 12:27 45.45439 9.27763 362 ft 12 kts 232°
2026-05-06 12:27 45.45386 9.27655 360 ft 14 kts 253°
2026-05-06 12:28 45.45314 9.27620 361 ft 12 kts 177°
2026-05-06 12:28 45.45155 9.27637 361 ft 49 kts 175°
2026-05-06 12:28 45.44581 9.27699 365 ft 113 kts 175°
2026-05-06 12:28 45.43623 9.27796 474 ft 152 kts 172°
2026-05-06 12:29 45.42592 9.27873 1175 ft 148 kts 172°
2026-05-06 12:29 45.41545 9.27960 1817 ft 154 kts 171°
2026-05-06 12:29 45.40413 9.27864 2248 ft 178 kts 197°
2026-05-06 12:29 45.39373 9.26724 2671 ft 201 kts 223°
2026-05-06 12:30 45.38296 9.25248 3045 ft 227 kts 221°
2026-05-06 12:30 45.37111 9.23625 3579 ft 245 kts 222°
2026-05-06 12:30 45.35865 9.21917 4375 ft 252 kts 222°
2026-05-06 12:30 45.34606 9.20189 5402 ft 251 kts 222°
2026-05-06 12:31 45.33343 9.18450 6352 ft 256 kts 222°
2026-05-06 12:31 45.32052 9.16683 7221 ft 258 kts 223°
2026-05-06 12:31 45.30762 9.14904 8074 ft 260 kts 223°
2026-05-06 12:31 45.29455 9.13110 8885 ft 264 kts 223°
2026-05-06 12:32 45.28121 9.11297 9713 ft 267 kts 223°
2026-05-06 12:32 45.26762 9.09460 10327 ft 277 kts 223°
2026-05-06 12:32 45.25301 9.07498 10577 ft 300 kts 223°
2026-05-06 12:32 45.23755 9.05423 11124 ft 310 kts 223°
2026-05-06 12:33 45.22181 9.03306 11851 ft 313 kts 223°
2026-05-06 12:33 45.20614 9.01194 12599 ft 317 kts 223°
2026-05-06 12:33 45.19011 8.99035 13345 ft 319 kts 223°
2026-05-06 12:33 45.17375 8.96832 14058 ft 322 kts 223°
2026-05-06 12:34 45.15746 8.94638 14732 ft 324 kts 223°
2026-05-06 12:34 45.14107 8.92437 15412 ft 325 kts 223°
2026-05-06 12:34 45.12460 8.90229 16095 ft 327 kts 224°
2026-05-06 12:34 45.10803 8.88010 16761 ft 329 kts 224°
2026-05-06 12:35 45.09699 8.86532 17193 ft 330 kts 224°
2026-05-06 12:35 45.08027 8.84289 17862 ft 333 kts 224°
2026-05-06 12:35 45.06330 8.82013 18349 ft 338 kts 224°
2026-05-06 12:35 45.04619 8.79723 18905 ft 339 kts 224°
2026-05-06 12:36 45.02904 8.77427 19513 ft 339 kts 224°
2026-05-06 12:36 45.01191 8.75138 20126 ft 339 kts 224°
2026-05-06 12:36 44.99477 8.72852 20699 ft 339 kts 224°
2026-05-06 12:36 44.97764 8.70568 21277 ft 339 kts 224°
2026-05-06 12:37 44.96050 8.68282 21866 ft 339 kts 224°
2026-05-06 12:37 44.94333 8.65993 22467 ft 340 kts 224°
2026-05-06 12:37 44.92614 8.63705 23068 ft 340 kts 224°
2026-05-06 12:37 44.90891 8.61414 23573 ft 341 kts 224°
2026-05-06 12:38 44.89164 8.59120 23998 ft 342 kts 223°
2026-05-06 12:38 44.87431 8.56820 24408 ft 343 kts 223°
2026-05-06 12:38 44.85688 8.54507 24777 ft 345 kts 223°
2026-05-06 12:38 44.83940 8.52186 25176 ft 346 kts 223°
2026-05-06 12:39 44.82184 8.49857 25573 ft 347 kts 223°
2026-05-06 12:39 44.80417 8.47518 25969 ft 349 kts 223°
2026-05-06 12:39 44.78642 8.45177 26354 ft 350 kts 223°
2026-05-06 12:39 44.76863 8.42831 26735 ft 352 kts 223°
2026-05-06 12:40 44.75075 8.40473 27120 ft 353 kts 223°
2026-05-06 12:40 44.73279 8.38109 27490 ft 355 kts 223°
2026-05-06 12:40 44.71473 8.35734 27860 ft 356 kts 223°
2026-05-06 12:40 44.69658 8.33351 28222 ft 359 kts 223°
2026-05-06 12:41 44.67827 8.30950 28477 ft 362 kts 222°
2026-05-06 12:41 44.65981 8.28531 28822 ft 364 kts 223°
2026-05-06 12:41 44.64127 8.26101 29169 ft 365 kts 222°
2026-05-06 12:41 44.62265 8.23658 29488 ft 367 kts 223°
2026-05-06 12:42 44.60395 8.21202 29809 ft 369 kts 223°
2026-05-06 12:42 44.58514 8.18736 30081 ft 371 kts 222°
2026-05-06 12:42 44.56625 8.16266 30361 ft 372 kts 222°
2026-05-06 12:42 44.54726 8.13788 30634 ft 374 kts 222°
2026-05-06 12:43 44.52819 8.11303 30883 ft 375 kts 222°
2026-05-06 12:43 44.50910 8.08818 31216 ft 374 kts 222°
2026-05-06 12:43 44.49010 8.06346 31607 ft 372 kts 222°
2026-05-06 12:43 44.47118 8.03882 31978 ft 371 kts 222°
2026-05-06 12:44 44.45260 8.01461 32350 ft 369 kts 222°
2026-05-06 12:44 44.43383 7.99019 32695 ft 369 kts 222°
2026-05-06 12:44 44.41508 7.96585 32819 ft 364 kts 222°
2026-05-06 12:44 44.39665 7.94195 32796 ft 360 kts 222°
2026-05-06 12:45 44.35992 7.89451 32800 ft 359 kts 222°
2026-05-06 12:46 44.30495 7.82367 32804 ft 358 kts 222°
2026-05-06 12:46 44.26826 7.77647 32809 ft 359 kts 222°
2026-05-06 12:47 44.23124 7.73005 32806 ft 357 kts 221°
2026-05-06 12:47 44.19388 7.68436 32808 ft 357 kts 221°
2026-05-06 12:48 44.15648 7.63872 32781 ft 357 kts 221°
2026-05-06 12:48 44.12260 7.58850 32846 ft 356 kts 227°
2026-05-06 12:49 44.09017 7.53645 32852 ft 356 kts 227°
2026-05-06 12:49 44.05760 7.48442 32832 ft 357 kts 227°
2026-05-06 12:50 44.02498 7.43234 32838 ft 358 kts 227°
2026-05-06 12:50 43.99222 7.38019 32846 ft 358 kts 227°
2026-05-06 12:51 43.95954 7.32818 32851 ft 357 kts 227°
2026-05-06 12:51 43.92692 7.27645 32868 ft 356 kts 227°
2026-05-06 12:52 43.89428 7.22485 32870 ft 355 kts 227°
2026-05-06 12:52 43.86197 7.17381 32862 ft 354 kts 227°
2026-05-06 12:53 43.82945 7.12248 32860 ft 354 kts 227°
2026-05-06 12:53 43.79692 7.07130 32850 ft 354 kts 227°
2026-05-06 12:54 43.76443 7.02023 32857 ft 353 kts 227°
2026-05-06 12:54 43.73214 6.96912 32855 ft 353 kts 230°
2026-05-06 12:55 43.70899 6.90911 32858 ft 358 kts 244°
2026-05-06 12:55 43.69038 6.84540 32855 ft 357 kts 243°
2026-05-06 12:56 43.67159 6.78183 32858 ft 358 kts 243°
2026-05-06 12:56 43.65274 6.71814 32850 ft 358 kts 243°
2026-05-06 12:57 43.63384 6.65455 32832 ft 358 kts 243°
2026-05-06 12:57 43.61491 6.59103 32842 ft 358 kts 243°
2026-05-06 12:58 43.59599 6.52737 32856 ft 358 kts 243°
2026-05-06 12:58 43.57708 6.46383 32908 ft 358 kts 244°
2026-05-06 12:59 43.55806 6.40030 32876 ft 359 kts 244°
2026-05-06 12:59 43.53910 6.33707 32876 ft 360 kts 244°
2026-05-06 13:00 43.51985 6.27322 32869 ft 361 kts 243°
2026-05-06 13:00 43.50060 6.20934 32873 ft 361 kts 243°
2026-05-06 13:01 43.48131 6.14550 32875 ft 361 kts 243°
2026-05-06 13:01 43.46198 6.08171 32908 ft 361 kts 244°
2026-05-06 13:02 43.44262 6.01787 32917 ft 362 kts 244°
2026-05-06 13:02 43.42316 5.95409 32905 ft 361 kts 244°
2026-05-06 13:03 43.40376 5.89036 32915 ft 361 kts 244°
2026-05-06 13:03 43.38435 5.82666 32906 ft 361 kts 243°
2026-05-06 13:04 43.36483 5.76308 32914 ft 361 kts 244°
2026-05-06 13:04 43.34535 5.69960 32948 ft 361 kts 244°
2026-05-06 13:05 43.32577 5.63611 32931 ft 361 kts 244°
2026-05-06 13:05 43.30608 5.57259 32940 ft 361 kts 244°
2026-05-06 13:06 43.28643 5.50911 32919 ft 361 kts 244°
2026-05-06 13:06 43.26672 5.44568 32929 ft 361 kts 244°
2026-05-06 13:07 43.24695 5.38233 32929 ft 361 kts 244°
2026-05-06 13:07 43.22723 5.31909 32969 ft 361 kts 244°
2026-05-06 13:08 43.20749 5.25588 32955 ft 361 kts 244°
2026-05-06 13:08 43.18770 5.19268 32947 ft 361 kts 244°
2026-05-06 13:09 43.16790 5.12955 32939 ft 361 kts 244°
2026-05-06 13:09 43.14803 5.06649 32935 ft 361 kts 244°
2026-05-06 13:10 43.12815 5.00342 32932 ft 361 kts 244°
2026-05-06 13:10 43.10820 4.94040 32928 ft 361 kts 244°
2026-05-06 13:11 43.08816 4.87744 32933 ft 361 kts 244°
2026-05-06 13:11 43.06807 4.81448 32932 ft 361 kts 244°
2026-05-06 13:12 43.04026 4.75799 32930 ft 360 kts 225°
2026-05-06 13:12 43.00288 4.71240 32935 ft 360 kts 223°
2026-05-06 13:13 42.96530 4.66703 32935 ft 361 kts 223°
2026-05-06 13:13 42.92794 4.62190 32932 ft 361 kts 223°
2026-05-06 13:14 42.89032 4.57657 32930 ft 361 kts 223°
2026-05-06 13:14 42.85266 4.53123 32949 ft 361 kts 223°
2026-05-06 13:15 42.81489 4.48593 32938 ft 362 kts 223°
2026-05-06 13:15 42.77709 4.44066 32938 ft 362 kts 223°
2026-05-06 13:16 42.73923 4.39532 32945 ft 362 kts 223°
2026-05-06 13:16 42.70136 4.35003 32946 ft 362 kts 223°
2026-05-06 13:17 42.66345 4.30487 32952 ft 363 kts 223°
2026-05-06 13:17 42.62551 4.25974 32952 ft 363 kts 223°
2026-05-06 13:18 42.58756 4.21460 32952 ft 363 kts 223°
2026-05-06 13:18 42.54963 4.16948 32975 ft 363 kts 223°
2026-05-06 13:18 42.53068 4.14699 32777 ft 359 kts 223°
2026-05-06 13:19 42.51205 4.12496 32497 ft 351 kts 223°
2026-05-06 13:19 42.49372 4.10333 32234 ft 347 kts 223°
2026-05-06 13:19 42.47559 4.08194 31975 ft 345 kts 223°
2026-05-06 13:19 42.45756 4.06065 31718 ft 343 kts 223°
2026-05-06 13:20 42.43965 4.03950 31460 ft 341 kts 224°
2026-05-06 13:20 42.42182 4.01845 31201 ft 339 kts 223°
2026-05-06 13:20 42.40409 3.99759 30956 ft 337 kts 223°
2026-05-06 13:20 42.38646 3.97685 30701 ft 335 kts 223°
2026-05-06 13:21 42.36892 3.95620 30468 ft 333 kts 224°
2026-05-06 13:21 42.35165 3.93587 30186 ft 326 kts 224°
2026-05-06 13:21 42.33472 3.91595 29749 ft 320 kts 224°
2026-05-06 13:21 42.31808 3.89643 29434 ft 313 kts 224°
2026-05-06 13:22 42.30726 3.88377 29204 ft 309 kts 224°
2026-05-06 13:22 42.28581 3.85868 28729 ft 301 kts 224°
2026-05-06 13:22 42.27537 3.84644 28467 ft 299 kts 224°
2026-05-06 13:22 42.25978 3.82820 28091 ft 294 kts 224°
2026-05-06 13:23 42.24438 3.81023 27720 ft 291 kts 224°
2026-05-06 13:23 42.22911 3.79236 27348 ft 290 kts 224°
2026-05-06 13:23 42.21389 3.77455 26969 ft 289 kts 224°
2026-05-06 13:23 42.19874 3.75683 26589 ft 288 kts 224°
2026-05-06 13:24 42.18367 3.73919 26206 ft 286 kts 224°
2026-05-06 13:24 42.16868 3.72168 25833 ft 285 kts 224°
2026-05-06 13:24 42.15372 3.70424 25435 ft 283 kts 224°
2026-05-06 13:24 42.13885 3.68693 25047 ft 282 kts 224°
2026-05-06 13:25 42.12407 3.66975 24636 ft 280 kts 224°
2026-05-06 13:25 42.10935 3.65262 24245 ft 279 kts 224°
2026-05-06 13:25 42.09528 3.63538 23856 ft 276 kts 229°
2026-05-06 13:25 42.08366 3.61498 23455 ft 274 kts 239°
2026-05-06 13:26 42.07521 3.59211 23010 ft 273 kts 245°
2026-05-06 13:26 42.06756 3.56879 22614 ft 272 kts 245°
2026-05-06 13:26 42.05989 3.54560 22230 ft 271 kts 245°
2026-05-06 13:26 42.05222 3.52245 21848 ft 271 kts 245°
2026-05-06 13:27 42.04456 3.49934 21470 ft 270 kts 245°
2026-05-06 13:27 42.03689 3.47628 21098 ft 270 kts 245°
2026-05-06 13:27 42.02921 3.45321 20727 ft 270 kts 245°
2026-05-06 13:27 42.02154 3.43016 20345 ft 270 kts 245°
2026-05-06 13:28 42.01387 3.40714 19979 ft 270 kts 245°
2026-05-06 13:28 42.00620 3.38409 19609 ft 270 kts 246°
2026-05-06 13:28 41.99852 3.36100 19233 ft 270 kts 246°
2026-05-06 13:28 41.99083 3.33794 18865 ft 271 kts 246°
2026-05-06 13:29 41.98310 3.31479 18497 ft 272 kts 246°
2026-05-06 13:29 41.97532 3.29157 18106 ft 273 kts 246°
2026-05-06 13:29 41.96753 3.26830 17712 ft 273 kts 246°
2026-05-06 13:29 41.95975 3.24504 17342 ft 273 kts 246°
2026-05-06 13:30 41.95198 3.22176 16979 ft 273 kts 246°
2026-05-06 13:30 41.94278 3.19952 16605 ft 273 kts 236°
2026-05-06 13:30 41.93170 3.17878 16248 ft 273 kts 236°
2026-05-06 13:30 41.92064 3.15804 15897 ft 273 kts 236°
2026-05-06 13:31 41.90957 3.13729 15544 ft 274 kts 236°
2026-05-06 13:31 41.89848 3.11649 15193 ft 274 kts 236°
2026-05-06 13:31 41.88738 3.09565 14844 ft 275 kts 236°
2026-05-06 13:31 41.87622 3.07471 14496 ft 276 kts 236°
2026-05-06 13:32 41.86500 3.05366 14136 ft 277 kts 236°
2026-05-06 13:32 41.85375 3.03257 13774 ft 279 kts 236°
2026-05-06 13:32 41.84241 3.01133 13384 ft 280 kts 236°
2026-05-06 13:32 41.83107 2.99007 13022 ft 280 kts 236°
2026-05-06 13:33 41.81975 2.96888 12658 ft 279 kts 236°
2026-05-06 13:33 41.80841 2.94771 12302 ft 279 kts 237°
2026-05-06 13:33 41.79711 2.92664 11927 ft 278 kts 236°
2026-05-06 13:33 41.78581 2.90561 11562 ft 278 kts 237°
2026-05-06 13:34 41.77452 2.88459 11195 ft 278 kts 236°
2026-05-06 13:34 41.76324 2.86360 10820 ft 277 kts 237°
2026-05-06 13:34 41.75202 2.84263 10444 ft 277 kts 237°
2026-05-06 13:34 41.74081 2.82167 10070 ft 277 kts 238°
2026-05-06 13:35 41.72906 2.80125 9721 ft 277 kts 226°
2026-05-06 13:35 41.71281 2.78735 9433 ft 281 kts 208°
2026-05-06 13:35 41.69510 2.77630 9140 ft 280 kts 207°
2026-05-06 13:35 41.67741 2.76544 8851 ft 279 kts 207°
2026-05-06 13:36 41.65978 2.75465 8549 ft 278 kts 207°
2026-05-06 13:36 41.64227 2.74389 8255 ft 276 kts 208°
2026-05-06 13:36 41.62491 2.73317 7973 ft 274 kts 208°
2026-05-06 13:36 41.60763 2.72244 7685 ft 273 kts 208°
2026-05-06 13:37 41.59044 2.71175 7404 ft 272 kts 207°
2026-05-06 13:37 41.57337 2.70115 7116 ft 270 kts 208°
2026-05-06 13:37 41.55638 2.69064 6835 ft 268 kts 207°
2026-05-06 13:37 41.53951 2.68019 6549 ft 267 kts 208°
2026-05-06 13:38 41.52280 2.66986 6377 ft 258 kts 207°
2026-05-06 13:38 41.50692 2.66008 6283 ft 245 kts 207°
2026-05-06 13:38 41.49300 2.64848 6178 ft 229 kts 226°
2026-05-06 13:38 41.48416 2.63153 6093 ft 221 kts 247°
2026-05-06 13:39 41.47799 2.61242 6005 ft 239 kts 248°
2026-05-06 13:39 41.47105 2.59115 5887 ft 256 kts 247°
2026-05-06 13:39 41.46385 2.56928 5724 ft 259 kts 246°
2026-05-06 13:39 41.45889 2.55449 5576 ft 258 kts 246°
2026-05-06 13:40 41.45150 2.53266 5346 ft 259 kts 246°
2026-05-06 13:40 41.44409 2.51084 5110 ft 258 kts 246°
2026-05-06 13:40 41.43671 2.48910 4893 ft 255 kts 246°
2026-05-06 13:40 41.42945 2.46800 4664 ft 246 kts 246°
2026-05-06 13:41 41.42249 2.44755 4443 ft 238 kts 246°
2026-05-06 13:41 41.41581 2.42776 4238 ft 230 kts 247°
2026-05-06 13:41 41.40934 2.40863 4032 ft 223 kts 247°
2026-05-06 13:41 41.40316 2.39033 3854 ft 217 kts 246°
2026-05-06 13:42 41.39691 2.37187 3655 ft 215 kts 246°
2026-05-06 13:42 41.39074 2.35363 3466 ft 216 kts 246°
2026-05-06 13:42 41.38457 2.33543 3271 ft 214 kts 246°
2026-05-06 13:42 41.37846 2.31743 3086 ft 213 kts 246°
2026-05-06 13:43 41.37235 2.29939 2895 ft 214 kts 246°
2026-05-06 13:43 41.36640 2.28187 2729 ft 202 kts 244°
2026-05-06 13:43 41.36078 2.26532 2629 ft 194 kts 243°
2026-05-06 13:43 41.35534 2.24930 2405 ft 187 kts 244°
2026-05-06 13:44 41.35015 2.23403 2170 ft 175 kts 243°
2026-05-06 13:44 41.34527 2.21968 1930 ft 164 kts 242°
2026-05-06 13:44 41.34077 2.20645 1749 ft 148 kts 243°
2026-05-06 13:44 41.33666 2.19437 1550 ft 138 kts 240°
2026-05-06 13:45 41.33270 2.18290 1321 ft 136 kts 242°
2026-05-06 13:45 41.32479 2.15978 967 ft 137 kts 244°
2026-05-06 13:45 41.32088 2.14824 815 ft 137 kts 244°
2026-05-06 13:46 41.31705 2.13688 637 ft 134 kts 244°
2026-05-06 13:46 41.31327 2.12564 419 ft 134 kts 243°
2026-05-06 13:46 41.30945 2.11436 243 ft 132 kts 243°
2026-05-06 13:46 41.30561 2.10320 62 ft 132 kts 243°
2026-05-06 13:47 41.30200 2.09279 17 ft 108 kts 245°
2026-05-06 13:47 41.29963 2.08588 23 ft 57 kts 245°
2026-05-06 13:47 41.29821 2.08174 20 ft 40 kts 246°
2026-05-06 13:47 41.29748 2.07868 18 ft 32 kts 262°
2026-05-06 13:48 41.29789 2.07624 14 ft 18 kts 329°
2026-05-06 13:48 41.29805 2.07613 14 ft 0 kts 335°
2026-05-06 13:48 41.29813 2.07608 14 ft 4 kts 335°
2026-05-06 13:49 41.29851 2.07584 15 ft 8 kts 335°
2026-05-06 13:49 41.29920 2.07563 15 ft 12 kts 21°
2026-05-06 13:49 41.29956 2.07644 15 ft 10 kts 67°
2026-05-06 13:49 41.29998 2.07756 17 ft 19 kts 65°
2026-05-06 13:50 41.30049 2.07905 16 ft 17 kts 66°
2026-05-06 13:50 41.30098 2.08046 16 ft 16 kts 65°
2026-05-06 13:50 41.30141 2.08168 19 ft 13 kts 54°
2026-05-06 13:50 41.30196 2.08179 18 ft 4 kts 349°
2026-05-06 13:51 41.30215 2.08169 18 ft 4 kts 337°
2026-05-06 13:51 41.30236 2.08157 19 ft 0 kts 339°
2026-05-06 13:51 41.30250 2.08151 21 ft 5 kts 343°
2026-05-06 13:51 41.30301 2.08173 21 ft 8 kts 24°
2026-05-06 13:52 41.30325 2.08187 21 ft 0 kts 24°